Wetbulb
29.72 30.87 31.12 29.94 29.45 29.92 23.50 28.47 20.59 26.16 28.01 33.53 36.65 38.98 41.52 41.87 41.12 40.10 39.60 39.35 41.00 41.20 38.72 36.78 35.14 35.82 37.55 38.65 39.32 39.79 38.90 38.78 39.53 39.15 39.70 38.72 37.87 37.33 37.90 37.34 36.40 35.81 35.04 34.88
22.86 29.54 30.02 27.13 30.70 30.90 30.46 30.95 30.65 31.88 31.60 38.55 40.66 42.95 42.24 39.32 37.21 36.57 36.72 38.63 41.09 35.18 33.38 32.83 32.57 33.80 35.83 35.98 36.59 37.90 37.94 36.69 37.29 37.06 36.72 36.26 35.78 36.12 36.11 35.78 35.38 35.08 34.89 34.99
20.43 27.80 28.88 23.74 29.53 30.39 30.76 32.01 33.91 29.92 34.50 41.50 40.24 42.53 39.17 36.22 34.65 34.16 34.41 34.61 33.27 32.71 32.24 32.04 33.01 34.59 33.63 34.34 35.40 35.07 35.43 35.41 35.30 35.40 35.05 35.17 35.44 35.23 34.68 34.26 34.47 34.07 34.44 34.46
20.84 25.09 17.98 30.53 36.94 35.57 33.74 35.63 36.10 36.57 38.75 41.01 42.08 40.56 37.07 36.02 33.04 32.87 33.37 32.89 33.02 33.02 33.31 33.99 35.84 35.82 36.11 36.14 35.97 35.75 35.32 35.49 35.99 35.79 35.12 35.25 35.06 34.57 34.46 34.54 33.94 33.54 32.77 32.48
23.97 24.61 26.54 32.49 37.34 35.78 34.01 34.29 37.46 35.99 38.46 41.52 42.12 39.61 37.78 36.47 33.92 32.85 33.14 33.63 33.49 33.95 34.17 34.24 34.34 35.14 35.03 34.83 35.16 35.28 35.12 35.30 35.64 35.42 34.60 34.40 33.30 32.66 32.51 32.54 32.12 31.99 31.83 31.65
29.91 24.43 21.53 31.83 36.29 39.26 37.88 30.48 38.39 37.86 38.67 42.08 40.73 38.26 38.17 35.26 34.85 33.90 34.49 34.07 33.53 34.28 34.64 34.20 34.52 35.26 34.48 34.20 34.16 33.99 34.79 34.86 35.48 35.44 34.36 32.77 32.42 32.20 31.94 32.12 31.90 31.69 30.63 29.29
29.50 25.92 28.43 35.79 36.91 40.44 29.51 31.85 37.92 38.00 39.29 40.67 39.45 39.48 37.58 36.47 35.05 35.75 35.50 35.08 35.70 35.47 35.12 35.58 35.95 35.27 33.80 33.54 32.08 33.89 34.84 35.23 34.54 33.93 32.81 32.17 32.09 32.08 31.42 30.61 28.85 26.57 25.14 23.77
30.40 28.57 24.27 36.85 38.54 34.79 38.42 38.17 38.89 38.21 38.83 40.35 38.72 37.66 37.20 36.82 35.51 35.43 34.34 34.69 34.85 34.58 34.83 35.94 35.92 34.75 33.36 31.89 34.58 34.55 33.77 33.21 32.78 33.89 34.68 33.05 31.53 29.20 26.82 25.11 23.07 22.40 21.34 21.05
31.17 30.67 37.12 37.32 39.89 40.97 39.49 38.10 37.47 38.27 39.39 40.57 38.15 36.36 37.26 35.84 35.48 35.40 34.20 33.90 33.98 34.10 34.22 34.87 35.78 35.14 32.43 33.72 34.77 34.14 33.20 32.70 32.51 31.74 29.40 26.99 24.77 22.94 21.63 21.32 20.51 20.48 20.31 19.73
35.04 38.35 38.51 39.63 39.27 39.61 39.05 37.99 37.52 38.42 40.06 39.24 37.98 35.58 34.44 34.81 36.02 35.61 35.89 35.17 35.19 33.85 33.48 33.38 34.41 34.39 33.99 34.39 34.01 31.97 28.10 25.96 24.99 23.97 23.41 23.14 23.62 23.63 21.11 19.64 18.96 19.65 19.98 19.27
36.27 39.08 39.31 38.62 39.04 39.53 38.02 37.30 37.03 39.40 39.40 38.02 35.42 34.98 34.53 33.93 33.39 34.29 33.65 33.77 30.09 30.45 30.33 31.04 32.20 31.79 31.75 28.83 27.08 25.21 24.67 24.48 23.40 22.77 21.75 21.43 21.91 21.37 21.42 20.04 20.86 19.66 19.89 21.32
35.69 40.45 38.47 38.82 38.00 38.51 37.12 36.24 36.74 38.65 37.26 38.35 38.17 35.24 34.66 33.83 33.39 32.55 29.62 29.25 28.96 29.60 29.51 29.33 27.84 26.87 26.99 27.38 26.35 24.82 23.35 22.67 22.13 21.06 20.22 20.49 20.71 21.03 30.56 30.09 30.80 30.07 29.70 26.20
38.22 40.16 39.87 39.66 37.71 37.21 36.24 36.00 36.25 37.16 37.45 36.48 36.07 34.92 33.61 33.83 32.25 32.59 30.22 29.81 29.03 28.54 28.52 27.12 26.66 26.36 26.02 26.08 25.79 24.69 22.51 21.98 21.81 20.58 19.05 18.33 17.98 17.99 18.28 21.79 27.76 28.40 28.60 28.37
40.27 39.37 37.86 37.52 38.05 36.72 35.77 35.20 36.74 33.98 34.08 33.84 32.56 32.50 32.47 32.23 32.97 29.88 29.24 29.85 30.20 29.86 29.15 26.73 25.71 24.44 24.89 25.56 24.53 22.76 22.62 26.34 19.32 18.47 18.69 18.27 18.11 18.26 18.15 17.56 16.47 17.26 23.18 25.45
38.16 38.30 36.80 36.11 34.52 33.54 32.85 32.03 31.13 30.58 30.04 29.59 30.71 32.19 32.54 31.53 29.30 29.13 29.73 30.23 29.88 29.08 28.50 27.34 24.61 23.25 24.55 24.37 23.98 22.06 21.07 19.51 18.50 18.47 18.72 20.32 19.01 18.40 17.81 17.43 16.80 16.07 16.71 20.41
37.43 38.37 36.22 35.21 33.96 32.28 31.33 30.65 29.92 28.96 29.00 28.10 28.71 29.76 31.68 30.65 29.19 29.10 29.34 29.38 28.18 26.82 27.07 26.24 23.63 22.92 23.52 23.26 21.47 20.54 21.39 25.47 22.06 19.35 19.13 18.47 18.16 17.55 17.04 16.37 16.02 15.58 15.22 15.83
33.50 33.91 35.11 31.55 32.33 32.04 31.26 31.51 30.88 29.80 29.67 28.56 27.66 26.91 27.63 27.76 27.81 27.55 27.87 28.43 27.86 27.13 26.93 25.73 23.41 23.70 23.45 22.28 22.06 20.56 20.57 21.30 23.45 18.65 18.22 18.16 17.48 16.84 16.70 16.29 15.74 15.52 15.31 17.95
34.32 35.62 36.66 37.43 37.69 35.84 33.44 33.63 32.83 31.65 30.73 30.25 28.83 27.99 26.79 26.32 26.11 26.22 25.87 26.04 25.23 24.23 25.17 24.01 23.62 23.16 22.06 21.71 21.23 20.19 19.91 18.52 18.22 16.98 18.10 18.02 17.13 17.10 16.43 16.15 15.94 15.69 15.85 17.58
36.31 36.48 37.23 38.02 38.71 38.10 35.82 34.58 33.49 32.42 30.58 29.62 28.24 27.14 26.53 25.65 26.01 26.06 25.72 25.40 23.64 21.73 22.16 23.14 27.79 23.93 21.49 22.59 21.78 19.52 18.48 17.64 17.43 16.96 17.70 19.65 16.52 16.16 15.94 16.31 16.23 15.99 15.83 16.88
35.72 37.09 38.23 38.45 37.52 36.29 34.35 33.75 32.33 30.45 30.05 29.18 27.50 26.05 24.46 23.45 23.74 23.95 24.61 23.23 23.97 23.24 22.98 23.68 23.29 21.24 20.91 23.56 24.77 18.03 17.27 16.75 15.96 15.68 16.09 14.90 15.46 15.63 15.49 17.80 17.45 16.50 15.76 16.78
33.82 35.09 36.41 38.91 38.95 37.10 35.16 32.96 31.22 29.11 28.85 27.62 26.77 25.51 24.26 22.81 23.55 23.41 21.91 21.90 21.80 25.32 23.03 26.97 21.16 20.33 20.70 22.67 20.64 16.86 16.49 15.92 15.48 14.35 14.88 14.32 14.79 14.91 15.10 15.28 15.19 15.73 15.97 16.44
32.12 32.13 33.22 34.71 35.23 33.92 34.00 32.90 31.97 29.48 28.06 26.17 26.33 25.61 24.16 22.95 22.60 22.63 23.88 24.11 23.10 29.18 24.51 20.75 20.31 23.34 21.37 26.07 16.85 16.13 15.67 15.71 15.12 14.20 13.78 14.18 14.70 13.65 10.99 10.27 10.42 13.71 14.39 12.70
30.71 31.06 30.81 31.43 31.14 31.13 31.27 30.61 29.49 28.56 27.52 27.53 26.24 25.23 25.16 24.80 24.38 23.16 22.09 23.74 24.31 27.76 20.93 19.70 23.34 27.57 27.81 17.29 16.17 15.74 15.54 15.03 14.74 14.26 12.19 9.71 10.60 7.87 7.63 8.17 9.54 11.72 9.89 10.69
28.72 29.19 29.27 28.79 28.65 28.58 27.29 27.11 27.56 27.74 27.95 27.44 27.16 26.79 25.97 23.87 23.01 24.02 26.11 27.77 28.27 28.35 20.31 21.12 25.46 28.89 28.45 15.85 15.19 14.74 14.68 14.32 11.67 8.99 10.53 17.63 7.39 6.71 7.18 8.58 8.78 9.94 10.05 11.93
26.21 26.34 26.81 27.20 26.99 26.86 25.17 24.26 24.10 24.12 24.76 24.52 25.35 25.49 25.78 26.21 26.30 24.28 25.46 26.73 29.79 26.69 21.40 27.37 28.97 29.85 18.33 15.49 15.10 14.91 13.25 10.25 6.09 7.56 9.72 7.68 7.32 6.43 7.59 8.30 8.39 9.22 9.50 10.30
25.11 26.91 26.25 25.95 25.93 25.70 25.40 24.73 24.21 23.90 23.75 22.97 23.58 24.47 23.92 24.80 25.26 25.51 25.96 27.35 27.15 25.50 21.60 23.96 24.23 22.72 17.48 16.44 15.91 15.35 14.33 13.46 15.31 12.86 12.96 10.89 8.92 7.08 7.91 8.75 8.94 9.68 10.95 10.35
23.67 29.56 28.28 26.43 26.38 26.13 24.95 24.20 23.25 22.97 25.01 24.03 24.60 24.43 24.55 24.83 25.45 25.20 26.90 26.12 25.48 23.44 22.62 22.21 23.05 21.89 17.33 16.25 16.54 15.61 14.37 13.97 16.09 13.80 13.51 12.20 8.91 6.77 8.99 9.38 9.20 9.98 10.69 11.44
MSLP
1016.97 1016.78 1016.80 1016.77 1016.79 1017.07 1017.57 1017.48 1017.33 1015.60 1014.46 1012.20 1011.51 1011.18 1011.02 1011.24 1011.29 1011.15 1010.83 1010.52 1010.33 1010.24 1010.47 1010.30 1010.22 1010.25 1010.07 1009.87 1009.58 1009.31 1009.08 1008.71 1009.48 1009.49 1009.61 1010.07 1010.47 1010.76 1011.42 1012.50 1012.93 1013.56 1014.56 1015.63
1017.23 1016.66 1016.47 1016.32 1015.93 1016.03 1016.15 1016.28 1015.88 1014.74 1013.39 1011.42 1011.24 1011.07 1011.33 1011.90 1012.15 1011.90 1011.71 1011.17 1010.75 1011.13 1011.34 1011.37 1011.28 1011.27 1010.87 1010.55 1010.40 1010.26 1010.02 1010.17 1010.59 1010.71 1011.06 1011.61 1011.84 1012.58 1012.56 1013.66 1014.15 1014.76 1015.71 1016.61
1017.55 1016.80 1016.20 1015.51 1013.74 1013.96 1014.19 1014.10 1013.84 1013.58 1011.62 1011.14 1011.04 1011.24 1012.03 1012.55 1012.78 1012.70 1012.59 1012.22 1012.26 1012.23 1012.23 1012.06 1011.89 1011.92 1011.60 1011.51 1011.45 1011.52 1011.68 1011.77 1011.99 1012.41 1012.86 1012.99 1013.40 1013.65 1014.11 1014.89 1015.41 1016.24 1017.07 1017.64
1017.51 1016.61 1015.37 1012.80 1011.88 1011.82 1012.24 1012.10 1012.15 1011.61 1011.06 1010.99 1011.26 1011.67 1012.59 1013.17 1013.24 1013.29 1013.19 1012.94 1012.98 1013.03 1012.92 1012.68 1012.59 1012.56 1012.42 1012.48 1012.28 1012.17 1012.33 1012.50 1013.20 1013.73 1014.00 1014.25 1014.42 1014.78 1015.70 1016.17 1016.67 1017.26 1018.09 1018.69
1017.09 1016.30 1014.25 1011.87 1011.20 1011.12 1011.43 1011.17 1010.80 1011.12 1011.07 1011.02 1011.40 1012.03 1012.92 1013.43 1013.56 1013.74 1013.79 1013.70 1013.65 1013.62 1013.57 1013.49 1013.52 1013.51 1013.36 1013.28 1013.31 1013.42 1013.58 1013.65 1014.09 1014.42 1014.72 1015.14 1015.19 1015.63 1016.49 1017.47 1017.68 1018.24 1018.05 1019.39
1016.15 1015.57 1013.70 1011.39 1010.61 1010.36 1010.55 1010.78 1010.36 1010.70 1010.99 1011.22 1011.76 1012.46 1013.18 1013.77 1013.97 1014.14 1014.36 1014.24 1014.15 1014.21 1014.31 1014.37 1014.37 1014.31 1014.21 1014.30 1014.49 1014.65 1014.86 1015.04 1015.33 1015.66 1015.77 1015.92 1016.37 1016.87 1017.35 1017.76 1018.66 1019.28 1019.45 1019.90
1015.36 1014.83 1012.73 1010.84 1010.42 1010.27 1010.53 1011.13 1010.46 1010.71 1011.00 1011.54 1012.13 1012.67 1013.31 1013.96 1014.33 1014.51 1014.73 1014.81 1014.84 1014.95 1014.93 1015.03 1015.13 1015.19 1015.27 1015.47 1015.67 1015.91 1016.01 1016.12 1016.40 1016.75 1016.59 1016.93 1017.48 1017.96 1018.21 1018.75 1019.07 1019.83 1020.32 1020.54
1014.50 1013.94 1012.12 1010.26 1010.40 1010.36 1010.38 1010.27 1010.44 1010.82 1011.15 1011.72 1012.36 1013.08 1013.66 1014.06 1014.57 1014.91 1015.22 1015.36 1015.47 1015.57 1015.65 1015.67 1015.64 1015.78 1015.99 1016.23 1016.48 1016.55 1016.85 1016.99 1017.37 1017.46 1017.66 1018.01 1018.35 1018.73 1019.00 1019.50 1020.15 1020.65 1020.94 1021.16
1013.05 1011.79 1010.39 1009.95 1009.94 1009.89 1010.13 1010.40 1010.50 1010.86 1011.27 1011.82 1012.70 1013.37 1013.84 1014.41 1014.76 1015.18 1015.58 1015.92 1016.12 1016.07 1016.19 1016.27 1016.25 1016.40 1016.67 1017.05 1017.11 1017.26 1017.52 1017.86 1018.12 1018.32 1018.64 1019.01 1019.37 1019.73 1020.05 1020.32 1020.54 1020.86 1021.02 1021.32
1011.94 1010.21 1010.03 1009.73 1009.67 1009.84 1010.11 1010.29 1010.59 1010.88 1011.39 1011.89 1012.53 1013.30 1013.94 1014.57 1014.99 1015.23 1015.68 1016.12 1016.30 1016.37 1016.48 1016.69 1016.93 1017.04 1017.15 1017.42 1017.63 1017.88 1018.30 1018.67 1018.92 1019.14 1019.52 1019.67 1019.77 1019.97 1020.29 1020.62 1020.99 1021.34 1021.56 1021.72
1011.01 1010.19 1009.75 1009.46 1009.52 1009.70 1010.09 1010.43 1010.75 1011.14 1011.51 1012.06 1012.70 1013.30 1013.66 1014.31 1014.99 1015.34 1015.77 1016.21 1016.43 1016.56 1016.82 1017.10 1017.42 1017.63 1017.73 1017.96 1018.19 1018.56 1018.96 1019.29 1019.57 1019.90 1020.23 1020.45 1020.59 1020.74 1020.99 1021.13 1021.27 1021.44 1021.60 1021.56
1010.62 1009.98 1009.89 1009.61 1009.49 1009.82 1010.37 1010.66 1010.93 1011.43 1011.90 1012.29 1012.66 1013.17 1013.78 1014.14 1014.78 1015.32 1015.87 1016.31 1016.64 1016.78 1017.05 1017.38 1017.69 1018.00 1018.27 1018.45 1018.68 1019.00 1019.56 1020.01 1020.40 1020.69 1020.95 1021.16 1021.31 1021.47 1021.14 1021.11 1021.08 1021.13 1021.16 1021.26
1010.68 1009.93 1009.81 1009.74 1009.88 1010.15 1010.58 1010.86 1011.16 1011.48 1011.85 1012.40 1012.91 1013.18 1013.69 1014.28 1014.78 1015.43 1016.06 1016.46 1016.80 1017.08 1017.38 1017.79 1018.19 1018.48 1018.70 1018.87 1019.10 1019.59 1020.12 1020.59 1020.98 1021.30 1021.51 1021.60 1021.60 1021.55 1021.70 1021.66 1021.58 1021.59 1021.49 1021.40
1010.86 1010.32 1010.15 1010.07 1010.14 1010.41 1010.86 1011.22 1011.39 1011.82 1012.13 1012.52 1013.01 1013.44 1013.85 1014.52 1015.08 1015.48 1016.02 1016.43 1016.82 1017.22 1017.69 1018.11 1018.56 1018.93 1019.12 1019.27 1019.59 1020.12 1020.50 1020.73 1021.24 1021.44 1021.56 1021.74 1021.90 1022.06 1022.18 1022.30 1022.38 1022.25 1022.03 1021.87
1011.32 1011.26 1011.09 1010.72 1010.70 1010.98 1011.35 1011.79 1012.08 1012.43 1012.68 1013.03 1013.29 1013.62 1014.11 1014.69 1015.36 1015.59 1015.98 1016.48 1016.94 1017.42 1017.92 1018.37 1018.93 1019.39 1019.50 1019.70 1020.03 1020.48 1020.80 1021.18 1021.49 1021.70 1021.88 1022.04 1022.31 1022.55 1022.73 1022.79 1022.79 1022.76 1022.66 1022.39
1011.89 1011.53 1011.14 1011.11 1011.14 1011.35 1011.63 1012.05 1012.40 1012.75 1013.03 1013.37 1013.60 1013.95 1014.34 1014.87 1015.39 1015.69 1016.12 1016.59 1017.04 1017.64 1018.11 1018.55 1019.10 1019.55 1019.73 1019.96 1020.36 1020.78 1021.06 1021.22 1021.60 1021.97 1022.27 1022.56 1022.80 1023.00 1023.13 1023.15 1023.09 1023.03 1022.95 1022.84
1012.49 1011.55 1011.19 1011.14 1011.28 1011.32 1011.44 1011.79 1012.17 1012.56 1013.01 1013.40 1013.70 1014.15 1014.70 1015.17 1015.75 1016.14 1016.46 1016.78 1017.22 1017.79 1018.28 1018.72 1019.30 1019.64 1019.94 1020.23 1020.57 1021.10 1021.44 1021.67 1021.91 1022.39 1022.71 1022.96 1023.12 1023.19 1023.23 1023.25 1023.26 1023.24 1023.11 1022.81
1012.61 1011.90 1011.38 1011.09 1010.86 1010.78 1011.01 1011.37 1011.80 1012.29 1012.76 1013.29 1013.76 1014.36 1014.98 1015.35 1015.78 1016.36 1016.75 1017.18 1017.72 1018.34 1018.67 1019.01 1019.41 1019.82 1020.18 1020.59 1020.99 1021.43 1021.79 1022.12 1022.42 1022.74 1022.96 1023.09 1023.08 1023.18 1023.25 1023.31 1023.34 1023.25 1023.07 1022.82
1012.07 1011.51 1010.83 1010.20 1010.00 1010.08 1010.33 1010.82 1011.37 1012.01 1012.63 1013.19 1013.77 1014.38 1014.99 1015.48 1015.90 1016.37 1016.86 1017.37 1017.88 1018.45 1018.99 1019.27 1019.61 1020.06 1020.48 1020.87 1021.24 1021.64 1022.03 1022.39 1022.67 1022.92 1023.01 1022.98 1023.15 1023.29 1023.36 1023.38 1023.30 1023.17 1023.05 1022.79
1012.09 1011.56 1010.78 1010.16 1009.92 1010.01 1010.36 1010.75 1011.34 1012.03 1012.59 1013.17 1013.82 1014.62 1015.12 1015.66 1016.16 1016.67 1016.99 1017.41 1017.65 1018.03 1018.66 1019.18 1019.65 1020.18 1020.62 1021.00 1021.38 1021.81 1022.19 1022.54 1022.82 1023.04 1023.24 1023.30 1023.34 1023.41 1023.46 1023.43 1023.31 1023.16 1022.97 1022.69
1012.59 1012.01 1011.35 1010.88 1010.67 1010.71 1010.84 1011.16 1011.67 1012.21 1012.66 1013.13 1013.71 1014.53 1015.06 1015.66 1016.11 1016.58 1017.23 1017.67 1017.90 1018.14 1018.69 1019.25 1019.79 1020.31 1020.73 1021.13 1021.56 1022.03 1022.37 1022.66 1022.94 1023.18 1023.30 1023.41 1023.53 1023.61 1023.61 1023.58 1023.43 1023.09 1022.80 1022.51
1013.28 1012.78 1012.18 1011.63 1011.39 1011.38 1011.55 1011.74 1012.04 1012.43 1012.84 1013.31 1013.90 1014.52 1015.07 1015.75 1016.29 1016.71 1016.96 1017.28 1017.87 1018.20 1018.79 1019.37 1019.82 1020.29 1020.72 1021.10 1021.68 1022.09 1022.40 1022.67 1022.94 1023.19 1023.39 1023.57 1023.69 1023.72 1023.72 1023.67 1023.40 1022.97 1022.72 1022.50
1013.93 1013.37 1012.81 1012.35 1012.12 1011.94 1011.96 1012.13 1012.34 1012.59 1012.85 1013.24 1013.64 1014.17 1014.61 1015.11 1015.84 1016.41 1016.85 1017.27 1017.66 1018.13 1018.80 1019.28 1019.72 1020.12 1020.57 1021.23 1021.66 1022.03 1022.32 1022.58 1022.83 1023.07 1023.33 1023.51 1023.61 1023.72 1023.75 1023.63 1023.21 1022.81 1022.56 1022.20
1014.50 1013.96 1013.54 1013.07 1012.66 1012.49 1012.52 1012.58 1012.70 1012.87 1013.00 1013.20 1013.47 1013.86 1014.35 1015.09 1015.79 1016.12 1016.27 1016.77 1017.41 1018.00 1018.76 1019.18 1019.59 1019.91 1020.37 1021.11 1021.56 1021.88 1022.16 1022.42 1022.64 1022.86 1023.07 1023.07 1023.22 1023.28 1023.30 1023.12 1022.87 1022.54 1022.20 1021.72
1014.89 1014.50 1014.10 1013.71 1013.37 1013.16 1013.04 1012.99 1013.05 1013.01 1013.11 1013.43 1013.64 1013.88 1014.21 1014.48 1014.80 1015.68 1016.28 1016.66 1017.11 1017.81 1018.53 1018.90 1019.28 1019.67 1020.33 1020.97 1021.41 1021.71 1021.97 1022.23 1022.44 1022.69 1022.83 1022.91 1022.96 1023.03 1022.94 1022.77 1022.52 1022.22 1021.76 1021.32
1015.12 1014.84 1014.55 1014.23 1013.91 1013.53 1013.29 1013.20 1013.20 1013.19 1013.25 1013.45 1013.66 1013.87 1014.26 1014.61 1015.01 1015.48 1016.01 1016.46 1016.96 1017.66 1018.26 1018.65 1018.97 1019.50 1020.24 1020.83 1021.23 1021.56 1021.84 1022.06 1022.24 1022.34 1022.42 1022.53 1022.61 1022.64 1022.48 1022.21 1021.99 1021.69 1021.26 1020.89
1015.40 1015.03 1014.62 1014.31 1013.90 1013.59 1013.35 1013.28 1013.27 1013.18 1013.20 1013.37 1013.50 1013.78 1013.99 1014.31 1014.72 1015.20 1015.64 1016.11 1016.70 1017.36 1017.91 1018.40 1018.82 1019.38 1020.05 1020.60 1020.96 1021.32 1021.55 1021.71 1021.92 1021.99 1022.02 1022.01 1022.05 1022.10 1022.06 1021.70 1021.42 1021.10 1020.71 1020.34
Wind_Speed
4 5 2 4 5 7 8 10 7 5 7 20 17 17 12 6 10 12 12 15 12 7 7 6 7 6 5 6 6 6 9 11 8 8 9 10 11 12 14 12 13 15 16 14
5 4 7 5 8 9 10 10 12 18 24 23 15 6 4 7 10 11 13 15 6 7 7 7 7 6 7 7 8 7 11 12 10 11 12 12 13 13 15 14 14 15 14 12
4 4 3 6 10 12 6 6 9 13 15 5 6 8 3 6 7 9 11 11 10 7 5 4 6 5 8 9 10 12 13 12 13 13 12 13 13 14 14 14 14 13 11 10
3 4 1 7 4 6 13 11 12 12 12 7 4 2 3 3 6 8 8 9 8 6 5 5 6 7 8 9 10 10 12 13 11 12 11 12 14 14 12 11 11 9 7 6
1 2 7 3 3 5 6 6 5 7 6 3 3 5 3 5 5 6 5 5 6 6 6 6 6 5 7 8 9 9 10 10 10 10 11 12 13 13 10 8 8 6 7 4
1 1 4 2 3 1 4 4 5 3 5 2 3 3 1 3 4 5 6 6 6 7 7 7 6 5 8 9 10 9 9 10 9 9 10 11 10 9 7 7 6 4 4 4
3 3 8 7 4 3 2 5 2 2 3 3 3 1 4 4 4 5 5 6 7 8 7 7 7 8 10 10 10 8 8 10 10 9 10 10 9 8 8 5 5 5 6 5
4 4 8 4 2 2 4 3 2 3 3 3 4 5 4 4 4 4 4 6 6 5 6 6 7 8 8 9 6 9 8 10 8 8 7 7 7 4 5 6 6 5 5 4
8 7 5 2 2 2 4 4 2 3 4 6 7 4 4 4 5 4 4 5 5 5 6 5 7 6 9 6 7 9 9 8 7 7 5 4 5 5 5 5 5 4 4 4
1 4 9 7 4 4 4 3 2 3 5 7 8 8 6 4 5 5 6 6 6 6 7 7 7 8 7 7 7 7 7 6 5 6 6 5 4 4 5 4 4 4 3 3
5 8 7 3 4 3 3 2 2 2 6 7 8 8 8 7 5 5 5 5 4 6 6 7 6 6 5 5 6 7 6 5 6 5 5 5 5 4 4 1 4 3 2 2
4 2 2 6 1 3 4 3 4 6 5 5 8 9 7 7 7 6 6 5 4 5 7 6 6 6 5 5 6 7 6 4 4 4 4 4 4 4 10 10 10 7 5 1
5 4 4 5 2 3 3 4 3 5 5 7 5 7 7 8 6 9 6 6 6 6 6 6 6 6 5 5 6 6 6 5 4 4 3 3 3 4 4 5 9 9 9 8
8 4 4 3 4 5 3 3 4 3 3 5 6 6 7 9 8 7 7 6 7 7 7 7 6 6 4 6 7 7 6 9 4 4 4 4 4 4 3 3 3 3 7 7
10 6 5 3 3 4 3 4 4 4 4 5 6 9 9 10 8 7 7 7 7 7 6 7 7 5 5 6 7 6 5 4 4 4 4 4 4 4 3 3 2 2 3 5
12 10 6 4 4 4 4 5 5 5 5 5 6 7 8 8 7 8 7 8 8 6 6 7 6 5 5 6 6 5 5 9 6 4 3 3 3 2 2 1 2 3 3 3
7 7 3 3 5 5 7 5 6 6 6 7 6 7 8 9 8 7 7 5 7 6 6 7 6 5 5 5 6 4 4 4 6 3 2 2 2 2 1 1 1 2 3 4
8 11 12 11 7 5 6 7 7 8 7 7 8 9 9 10 10 8 7 7 7 6 5 6 6 6 5 5 5 4 4 3 3 3 2 2 2 1 0 1 1 2 3 3
9 9 9 8 7 6 6 8 8 8 8 9 9 9 8 6 8 9 9 9 9 8 6 6 11 8 6 6 6 4 4 4 3 2 2 2 2 0 0 1 2 3 3 3
10 10 9 5 3 2 5 6 8 7 8 10 9 8 8 7 7 8 8 8 7 4 8 7 7 6 6 7 9 4 4 4 4 3 2 1 1 1 1 3 3 3 3 3
10 11 10 6 3 2 3 5 7 7 8 8 10 9 8 7 8 9 8 7 6 7 8 12 6 4 4 6 6 4 4 4 4 3 2 2 2 2 2 3 3 3 4 4
9 8 9 7 4 1 2 4 5 6 7 6 6 7 9 8 7 6 2 4 5 15 7 5 5 10 6 10 4 4 4 4 3 3 2 2 3 3 2 2 3 3 4 4
8 8 8 8 5 3 2 3 4 5 7 9 9 10 10 8 7 9 8 6 6 12 5 5 10 14 14 5 4 4 4 4 4 3 2 2 2 3 2 3 4 4 4 5
8 9 8 7 6 2 1 3 5 6 7 6 7 8 9 7 4 2 4 13 15 14 7 7 11 15 13 4 4 4 4 4 3 3 3 5 3 3 3 3 4 4 4 6
6 6 5 7 6 4 4 2 2 4 5 5 5 5 6 4 4 6 5 7 17 12 6 15 16 16 5 4 4 4 3 3 3 3 3 3 3 3 3 4 4 5 5 4
5 5 5 5 4 4 4 2 3 2 3 3 3 4 4 4 4 7 6 10 9 11 6 6 5 5 5 4 4 4 3 3 3 2 4 3 3 3 4 4 4 5 5 5
4 9 5 5 4 4 3 3 3 4 4 4 4 4 6 6 7 8 11 9 7 7 7 5 5 7 4 4 4 4 3 3 5 3 3 3 3 3 4 5 5 5 5 6
Wind_Direction
266 248 212 221 210 185 191 205 181 234 253 276 295 307 314 348 342 333 332 327 318 333 344 9 31 36 42 31 33 66 80 80 78 92 98 98 97 100 100 94 97 97 96 91
289 280 217 242 231 218 221 231 255 261 275 279 286 287 343 345 338 337 336 333 18 30 19 22 31 22 41 47 41 52 69 67 73 77 86 88 90 90 89 89 87 90 90 91
278 340 313 288 226 199 196 208 217 238 249 295 311 333 335 333 340 339 339 360 13 23 20 39 60 58 62 66 78 70 65 67 70 68 69 81 84 82 81 85 86 87 88 92
266 0 317 242 186 181 202 239 218 259 276 295 303 153 106 5 351 348 355 14 23 23 27 39 74 84 85 79 79 83 90 91 86 95 95 88 89 85 81 85 90 94 90 82
268 260 282 270 167 138 170 273 203 216 259 297 348 144 173 23 22 10 15 40 39 31 34 51 57 77 90 86 86 88 92 96 105 111 112 110 98 95 88 94 90 84 95 126
275 262 249 248 129 52 120 298 199 195 266 314 316 299 22 34 30 44 44 48 61 54 53 47 41 58 73 74 76 69 68 71 77 90 92 87 92 90 79 83 101 129 125 115
222 267 284 252 267 174 77 254 185 218 244 172 237 218 116 115 75 70 71 71 69 65 61 55 56 68 69 75 72 70 77 85 78 69 78 78 85 87 92 98 85 81 84 67
180 235 265 190 94 163 221 270 236 218 200 167 120 136 110 113 108 89 85 75 75 76 58 71 78 87 78 78 81 78 72 80 76 79 82 85 89 93 86 92 97 98 99 77
195 215 244 250 256 224 190 224 268 192 174 144 150 177 151 136 138 109 99 92 85 86 76 57 82 91 95 78 86 92 89 84 84 87 84 84 102 102 94 95 99 88 75 61
193 260 246 255 238 220 207 220 253 222 174 167 158 158 152 153 145 137 121 121 117 105 92 86 90 97 95 102 106 104 95 86 86 90 80 68 66 70 78 72 73 80 86 82
250 281 288 258 223 210 212 215 243 150 174 172 151 166 158 150 146 133 121 127 125 117 108 107 111 106 112 110 101 92 88 84 73 68 77 74 64 89 88 112 135 131 150 146
235 280 231 270 275 168 202 230 220 175 158 165 173 162 156 151 148 144 132 127 116 111 113 108 106 107 106 107 111 110 97 88 96 90 76 81 95 56 65 74 68 65 62 63
271 292 226 268 250 166 198 213 194 189 179 169 159 150 148 143 138 140 128 132 142 133 121 117 113 107 106 115 113 107 113 118 106 107 112 116 86 73 61 21 51 45 28 21
352 317 278 193 270 177 154 143 119 107 129 146 142 133 137 137 144 146 147 143 134 129 124 121 115 112 125 117 107 109 115 121 110 101 88 75 70 70 61 47 22 351 2 4
357 347 281 293 91 100 100 128 124 145 138 126 137 141 141 143 158 153 135 133 125 119 118 118 120 124 127 122 116 116 109 101 98 92 88 87 74 67 60 52 31 346 342 353
317 306 290 275 208 169 154 175 163 175 159 141 143 144 150 147 144 140 136 140 143 149 138 131 129 137 124 115 113 105 104 113 102 88 85 83 76 85 69 43 7 346 336 321
317 323 324 276 233 216 210 197 188 177 162 162 155 132 132 133 131 135 134 125 122 132 136 136 139 133 126 123 117 112 110 108 130 99 110 118 123 110 96 37 327 308 299 305
261 262 264 255 262 229 207 198 180 171 171 159 143 144 150 156 157 150 138 126 110 101 126 139 138 133 124 126 125 129 128 129 128 147 158 153 150 137 136 285 287 307 312 307
324 308 297 256 234 223 189 176 169 159 148 152 150 165 164 154 154 152 144 145 149 151 185 151 158 143 139 156 139 132 140 149 154 162 165 148 98 132 296 304 309 311 304 295
342 339 338 352 24 137 142 137 141 151 156 153 149 153 154 152 147 151 157 169 172 159 144 161 147 147 150 169 157 149 156 167 170 172 166 163 210 228 265 298 307 293 292 286
343 342 351 346 344 49 103 133 152 159 160 157 162 175 166 152 154 151 154 174 190 157 149 161 150 147 144 156 151 155 167 169 170 177 181 197 260 247 261 281 291 285 287 285
343 343 346 353 348 347 154 165 158 161 158 153 152 146 148 159 156 162 166 185 147 167 153 144 154 169 170 168 150 167 173 177 175 167 191 226 244 257 262 261 269 276 273 276
337 339 343 353 348 310 169 173 166 169 170 172 175 171 178 173 173 173 192 182 157 173 152 158 175 179 184 149 165 175 182 185 187 193 200 216 229 229 239 262 263 265 274 274
342 342 337 333 325 347 221 214 193 188 192 184 180 174 163 159 169 174 145 164 168 170 169 169 183 186 170 163 174 183 189 193 184 186 214 245 219 229 246 255 272 271 268 286
335 326 328 349 348 343 328 264 156 154 162 173 171 168 169 182 178 165 148 161 173 164 160 185 189 190 152 172 182 189 189 181 193 199 218 224 242 244 254 260 261 267 262 263
330 337 330 319 300 310 313 259 239 205 170 171 169 161 149 141 142 148 152 163 171 171 168 181 172 158 155 175 186 189 192 204 214 235 227 234 242 250 258 265 265 270 275 273
310 341 327 337 339 332 317 270 258 235 209 192 197 180 170 160 161 157 163 166 165 163 168 163 160 161 161 183 180 193 190 200 227 228 238 246 234 242 260 263 265 268 272 274